USTRANSCOM 7584


MUGM
Guantánamo Bay Naval Air Station
Guantanamo, CU
KNGU
Norfolk Naval Station (Chambers Field)
Norfolk, US

Activity Log

Date Flight Route Aircraft Duration
12/24/2019 CMB7584 SOUTP EASTP ZIN Y350 ZQA BR65V ZFP WOLFO AR18 PANAL AR3 CLB ISO DRONE2 B752 3h 02m

Route Details

Aircraft Information
Primary: Boeing 757-200SF
Backup: Not Available
Route Data
Distance: 1025.27nm
Sched. Duration: 3h 29m
Avg. Duration: 3h 02m (-28m)
Times Flown: 1
Recm'd Route: SOUTP EASTP ZIN Y350 ZQA BR65V ZFP WOLFO AR18 PANAL AR3 CLB ISO DRONE2
Planned Altitude: 38,000ft
Origin Wx: MUGM 170751Z 03006KT 8SM CLR 22/20 A2995 RMK AO2 SLP143 T02220200 $
Dest. Wx: KNGU 170759Z 24010KT 10SM CLR 02/M03 A2983 RMK AO2 SLP101 T00221033 $
Notes: USTRANSCOM CONTRACT FLIGHT | OVERFLIGHT OF CUBA PROHIBITED | SOUTP & EASTP FIXES MANDATORY

Financial History
Total Freight: 19,054lbs
Average Load: 19,054lbs/flt
Fuel Used: 20,303lbs
Avg. Fuel Used: 20,303lbs/flt
Fuel Expense: $16,242
Avg. Fuel Expense: $16,242
Avg. Fuel Cost: $0.80/lbs
Total Gross Income: $32,773
Pilot Pay: $229
Total Expenses: $3,591
Total Revenue: $12,244
Average Revenue: $32,772.88